sat.trackr.live / text

‹ back to catalog

STARLINK-3503

NORAD 51865 · 2022-022P

PAYLOAD ACTIVE UNKNOWN

§ Identity

Operator
Country
US
Launch date
2022-03-03
Launch site
AFETR
Launch vehicle
Mass (kg)
RCS (m²)

Purposes: comms

External: N2YO · Heavens-Above · Gunter

§ Orbital elements

Epoch: 2026-09-20T03:15:48.214944Z

Period
93.79 min
Inclination
53.1593°
Eccentricity
0.0001225
Mean motion
15.35401093 rev/d
Perigee alt
458.9 km
Apogee alt
460.6 km
Semi-major
6,837.9 km
B*
-9.4814e-6
RAAN
205.2768°
Arg perigee
77.4273°
Mean anomaly
282.6867°
Rev number
25,261

§ Raw data

STARLINK-35031 51865U 22022P   26263.13597471 -.00000711  00000+0 -94814-5 0  99902 51865  53.1593 205.2768 0001225  77.4273 282.6867 15.35401093252619

JSON: /api/v1/satellites/51865 · /tle

For live sub-satellite position, see the globe view (requires WebGL).

§ Visibility from observer

Set your observer location to see the next 7 days of passes ≥ 10°. The values pass through the URL so the page stays shareable.

No JS? Fill the form by hand. The geolocation button needs JavaScript.